Waarnemingen

Advertentie
Mijn weer
Arvika, Zweden (2411): temperatuur & dauwpunt: 18.01.2020 01:00:00 - 24.01.2020 01:00:00 (CET)Arvika, Zweden (2411): windsnelheid & windstoten: 18.01.2020 01:00:00 - 24.01.2020 01:00:00 (CET)Arvika, Zweden (2411): windrichting: 18.01.2020 01:00:00 - 24.01.2020 01:00:00 (CET)Arvika, Zweden (2411): luchtdruk: 18.01.2020 01:00:00 - 24.01.2020 01:00:00 (CET)Arvika, Zweden (2411): zicht: 18.01.2020 01:00:00 - 24.01.2020 01:00:00 (CET)Arvika, Zweden (2411): neerslag: 18.01.2020 01:00:00 - 24.01.2020 01:00:00 (CET)
Datum & Tijd tt [°C] td [°C] ff [km/u] ff [kn] fx [km/u] fx [kn] dd ppp [hPa] vv [km] rr [mm]
24.01.2020 01:00:00 6,4 2,4 4 2 18 10 WZW 1009,0 50 0,0
24.01.2020 00:00:00 6,5 2,4 5 3 19 10 WZW 1009,2 50 0,0
23.01.2020 23:00:00 6,3 2,4 3 2 16 9 WZW 1009,8 50 0,0
23.01.2020 22:00:00 6,3 2,6 4 2 19 10 ZW 1010,3 50 0,0
23.01.2020 21:00:00 6,3 2,9 5 3 16 9 ZZW 1010,6 50 0,0
23.01.2020 20:00:00 1,5 0,6 0 0 8 4 N 1011,2 45 0,0
23.01.2020 19:00:00 1,4 0,7 0 0 6 3 N 1011,9 50 0,0
23.01.2020 18:00:00 3,8 1,5 0 0 13 7 N 1011,6 50 0,0
23.01.2020 17:00:00 5,7 3,0 3 1 15 8 ZW 1012,1 50 0,0
23.01.2020 16:00:00 6,6 2,3 0 0 19 10 N 1012,8 50 0,0
23.01.2020 15:00:00 6,9 2,4 0 0 16 9 N 1013,2 50 0,0
23.01.2020 14:00:00 7,0 2,1 4 2 16 9 W 1014,0 50 0,0
23.01.2020 13:00:00 4,1 1,5 0 0 6 4 N 1015,1 50 0,0
23.01.2020 12:00:00 4,8 0,6 3 2 10 6 ZZO 1015,8 50 0,0
23.01.2020 11:00:00 1,1 -0,5 0 0 7 4 N 1017,1 50 0,0
23.01.2020 10:00:00 -3,6 -4,1 0 0 5 3 N 1018,0 50 0,0
23.01.2020 09:00:00 -4,8 -5,5 0 0 3 1 N 1018,7 50 0,0
23.01.2020 08:00:00 -5,5 -6,0 2 1 4 2 N 1019,5 50 0,0
23.01.2020 07:00:00 -6,5 -7,2 0 0 1 1 N 1020,6 50 0,0
23.01.2020 06:00:00 -5,7 -6,4 0 0 3 1 N 1022,1 50 0,0
23.01.2020 05:00:00 -5,5 -6,0 0 0 3 2 N 1023,4 50 0,0
23.01.2020 04:00:00 -5,5 -6,0 0 0 0 0 N 1024,4 50 0,0
23.01.2020 03:00:00 -5,5 -6,0 0 0 0 0 N 1025,6 47 0,0
23.01.2020 02:00:00 -4,5 -5,2 0 0 2 1 N 1027,2 49 0,0
23.01.2020 01:00:00 -5,5 -6,2 0 0 0 0 N 1027,6 39 0,0
23.01.2020 00:00:00 -4,3 -5,1 0 0 3 2 N 1028,7 50 0,0
22.01.2020 23:00:00 -5,1 -6,1 0 0 2 1 N 1029,1 50 0,0
22.01.2020 22:00:00 -5,4 -6,4 0 0 3 2 N 1029,2 50 0,0
22.01.2020 21:00:00 -6,4 -7,3 0 0 6 3 N 1029,8 50 0,0
22.01.2020 20:00:00 -6,1 -7,0 2 1 8 4 N 1029,4 50 0,0
22.01.2020 19:00:00 -4,9 -6,4 0 0 6 4 N 1029,4 50 0,0
22.01.2020 18:00:00 -4,4 -6,2 0 0 3 1 N 1029,1 50 0,0
22.01.2020 17:00:00 -2,4 -5,4 0 0 6 3 N 1028,4 50 0,0
22.01.2020 16:00:00 0,0 -6,0 0 0 9 5 N 1028,1 50 0,0
22.01.2020 15:00:00 4,2 -6,4 4 2 20 11 WNW 1027,8 50 0,0
22.01.2020 14:00:00 4,8 -6,1 4 2 19 10 WNW 1027,2 50 0,0
22.01.2020 13:00:00 4,9 -5,8 7 4 18 10 W 1026,4 50 0,0
22.01.2020 12:00:00 5,0 -6,0 3 1 16 8 W 1026,2 50 0,0
22.01.2020 11:00:00 3,5 -4,9 0 0 14 8 N 1025,4 50 0,0
22.01.2020 10:00:00 2,6 -5,5 8 4 18 10 WNW 1024,1 50 0,0
22.01.2020 09:00:00 1,8 -5,4 5 3 26 14 NW 1023,0 50 0,0
22.01.2020 08:00:00 -4,0 -4,7 3 2 11 6 OZO 1022,3 50 0,0
22.01.2020 07:00:00 -5,9 -6,6 0 0 5 3 N 1021,6 50 0,0
22.01.2020 06:00:00 -5,2 -5,7 0 0 6 3 N 1020,7 50 0,0
22.01.2020 05:00:00 -4,7 -5,4 0 0 7 4 N 1019,7 50 0,0
22.01.2020 04:00:00 -3,8 -4,5 0 0 7 4 N 1019,4 50 0,0
22.01.2020 03:00:00 -3,4 -4,4 0 0 5 3 N 1019,2 50 0,0
22.01.2020 02:00:00 -1,3 -4,5 0 0 15 8 N 1018,9 50 0,0
22.01.2020 01:00:00 -0,8 -3,3 0 0 7 4 N 1018,5 50 0,0
22.01.2020 00:00:00 -0,2 -3,7 0 0 10 5 N 1018,8 50 0,0
21.01.2020 23:00:00 3,6 -2,8 3 1 13 7 ZW 1018,8 50 0,0
21.01.2020 22:00:00 -0,6 -2,8 0 0 5 3 N 1019,2 50 0,0
21.01.2020 21:00:00 -2,4 -3,0 0 0 3 2 N 1019,4 50 0,0
21.01.2020 20:00:00 -1,1 -1,8 0 0 3 1 N 1019,9 50 0,0
21.01.2020 19:00:00 -0,4 -1,1 2 1 4 2 N 1020,3 50 0,0
21.01.2020 18:00:00 1,6 -0,6 0 0 6 4 N 1020,3 50 0,0
21.01.2020 17:00:00 1,3 -0,3 0 0 6 3 N 1021,4 50 0,0
21.01.2020 16:00:00 3,9 0,1 0 0 11 6 N 1022,0 50 0,0
21.01.2020 15:00:00 5,7 0,9 2 1 9 5 W 1021,4 50 0,0
21.01.2020 14:00:00 6,2 1,9 2 1 9 5 W 1021,4 50 0,0
21.01.2020 13:00:00 8,0 3,1 0 0 11 6 N 1021,4 47 0,0
21.01.2020 12:00:00 7,5 3,0 3 2 13 7 WZW 1021,1 50 0,0
21.01.2020 11:00:00 8,3 3,4 0 0 11 6 N 1021,7 44 0,0
21.01.2020 10:00:00 4,8 3,3 0 0 8 4 N 1020,3 47 0,0
21.01.2020 09:00:00 5,2 2,4 4 2 13 7 N 1020,4 50 0,0
21.01.2020 08:00:00 7,6 3,8 3 2 22 12 N 1019,6 48 0,0
21.01.2020 07:00:00 7,6 3,8 5 3 22 12 W 1018,7 50 0,0
21.01.2020 06:00:00 7,4 4,0 3 2 17 9 WZW 1018,6 44 0,0
21.01.2020 05:00:00 6,3 3,6 0 0 27 15 N 1019,1 21 0,0
21.01.2020 04:00:00 7,2 4,2 4 2 21 11 WZW 1019,3 23 0,0
21.01.2020 03:00:00 7,5 4,6 10 5 22 12 ZZW 1019,0 20 0,0
21.01.2020 02:00:00 7,7 4,8 10 5 29 16 ZZW 1020,0 22 0,0
21.01.2020 01:00:00 8,4 5,0 6 3 19 11 ZZW 1020,7 40 0,0
21.01.2020 00:00:00 8,5 4,9 4 2 24 13 ZZW 1020,8 49 0,0
20.01.2020 23:00:00 8,5 5,1 6 3 17 9 ZW 1022,1 50 0,0
20.01.2020 22:00:00 7,4 4,7 3 2 17 9 ZZW 1023,3 37 0,0
20.01.2020 21:00:00 6,9 4,2 9 5 20 11 ZZW 1024,1 30 0,0
20.01.2020 20:00:00 7,1 4,1 7 4 26 14 ZW 1024,8 40 0,0
20.01.2020 19:00:00 3,7 2,7 0 0 9 5 N 1025,3 38 0,0
20.01.2020 18:00:00 5,9 2,5 0 0 14 8 N 1026,0 41 0,0
20.01.2020 17:00:00 6,7 2,6 4 2 13 7 Z 1026,1 43 0,0
20.01.2020 16:00:00 3,3 1,0 3 2 14 7 ZZO 1026,8 50 0,0
20.01.2020 15:00:00 6,6 1,7 3 2 13 7 ZZW 1027,5 50 0,0
20.01.2020 14:00:00 8,6 2,2 7 4 21 11 ZW 1027,5 50 0,0
20.01.2020 13:00:00 7,9 2,6 5 3 21 12 ZW 1028,2 38 0,0
20.01.2020 12:00:00 7,5 2,9 4 2 16 8 ZW 1028,5 33 0,0
20.01.2020 11:00:00 5,5 2,0 4 2 15 8 ZZW 1029,0 36 0,0
20.01.2020 10:00:00 4,1 1,6 3 1 16 9 ZW 1029,2 47 0,0
20.01.2020 09:00:00 2,6 1,0 2 1 14 7 W 1029,3 50 0,0
20.01.2020 08:00:00 -1,4 -2,0 0 0 16 9 N 1029,5 - 0,0
20.01.2020 07:00:00 -1,8 -2,1 0 0 6 3 N 1029,7 - 0,0
20.01.2020 06:00:00 -2,5 -2,9 0 0 3 2 N 1030,0 - 0,0
20.01.2020 05:00:00 -1,9 -2,2 2 1 5 3 N 1030,2 - 0,0
20.01.2020 04:00:00 -2,4 -2,8 - - 2 1 N 1031,7 - 0,0
20.01.2020 03:00:00 -3,1 -3,6 - - 3 2 N 1032,3 - 0,0
20.01.2020 02:00:00 -3,2 -3,7 - - 2 1 N 1033,2 - 0,0
20.01.2020 01:00:00 -4,3 -4,8 - - 1 0 N 1033,6 - 0,0
20.01.2020 00:00:00 -5,1 -5,8 - - 0 0 N 1034,3 - 0,0
19.01.2020 23:00:00 -5,5 -6,2 - - 1 1 N 1034,5 - 0,0
19.01.2020 22:00:00 -5,1 -5,6 - - 2 1 N 1034,8 - 0,0
19.01.2020 21:00:00 -5,1 -5,8 - - 1 1 N 1034,5 - 0,0
19.01.2020 20:00:00 -4,6 -5,1 - - 3 2 N 1034,3 - 0,0
19.01.2020 19:00:00 -5,0 -5,4 - - 4 2 N 1033,7 - 0,0
19.01.2020 18:00:00 -5,1 -5,6 - - 1 1 N 1033,6 - 0,0
19.01.2020 17:00:00 -3,9 -4,2 - - 2 1 N 1032,6 - 0,0
19.01.2020 16:00:00 -2,8 -3,2 0 0 4 2 N 1031,5 3,9 0,0
19.01.2020 15:00:00 -1,0 -1,4 0 0 4 2 N 1030,7 45 0,0
19.01.2020 14:00:00 1,2 0,5 0 0 4 2 N 1029,8 44 0,0
19.01.2020 13:00:00 1,7 0,4 0 0 6 3 N 1028,9 50 0,0
19.01.2020 12:00:00 -0,2 -1,0 0 0 6 3 N 1027,7 35 0,0
19.01.2020 11:00:00 -1,9 -2,3 0 0 2 1 N 1027,1 49 0,0
19.01.2020 10:00:00 -4,5 -5,0 0 0 3 2 N 1025,8 50 0,0
19.01.2020 09:00:00 -5,6 -6,4 0 0 3 2 N 1024,4 50 0,0
19.01.2020 08:00:00 -5,0 -5,5 0 0 2 1 N 1022,5 - 0,0
19.01.2020 07:00:00 -4,0 -4,5 0 0 6 3 N 1021,1 - 0,0
19.01.2020 06:00:00 -4,2 -4,7 0 0 4 2 N 1020,0 - 0,0
19.01.2020 05:00:00 -5,1 -5,6 0 0 3 2 N 1018,5 - 0,0
19.01.2020 04:00:00 -4,4 -4,8 0 0 3 1 N 1017,2 - 0,2
19.01.2020 03:00:00 -4,1 -4,4 0 0 1 1 N 1016,1 - 0,0
19.01.2020 02:00:00 -4,0 -4,3 0 0 1 0 N 1014,6 - 0,0
19.01.2020 01:00:00 -3,3 -3,6 0 0 8 4 N 1013,3 - 0,0
19.01.2020 00:00:00 -3,5 -3,8 0 0 3 2 N 1012,0 - 0,0
18.01.2020 23:00:00 -2,2 -2,3 0 0 1 1 N 1010,8 - 0,0
18.01.2020 22:00:00 -1,8 -1,9 0 0 1 0 N 1009,3 - 0,0
18.01.2020 21:00:00 -1,0 -1,1 0 0 2 1 N 1008,2 - 0,0
18.01.2020 20:00:00 -0,7 -1,0 0 0 2 1 N 1007,1 - 0,0
18.01.2020 19:00:00 1,8 1,5 0 0 2 1 N 1005,9 - 0,0
18.01.2020 18:00:00 4,1 3,7 0 0 5 3 N 1004,9 - 0,3
18.01.2020 17:00:00 4,8 4,1 0 0 8 4 N 1004,1 - 0,1
18.01.2020 16:00:00 5,3 3,8 3 1 9 5 Z 1003,5 50 0,0
18.01.2020 15:00:00 5,7 4,3 4 2 11 6 Z 1003,2 43 0,0
18.01.2020 14:00:00 6,2 4,5 3 1 9 5 Z 1003,3 42 0,0
18.01.2020 13:00:00 6,4 4,7 6 3 13 7 Z 1003,4 42 0,0
18.01.2020 12:00:00 6,3 4,9 4 2 14 7 Z 1003,3 48 0,0
18.01.2020 11:00:00 5,8 5,2 5 3 9 5 Z 1003,6 23 1,3
18.01.2020 10:00:00 5,6 5,3 2 1 7 4 ZZW 1003,7 6 0,2
18.01.2020 09:00:00 5,3 5,0 0 0 4 2 N 1003,6 14 0,0
18.01.2020 08:00:00 5,4 5,3 0 0 4 2 N 1003,5 47 0,0
18.01.2020 07:00:00 4,7 4,6 0 0 3 1 N 1003,6 2,4 0,0
18.01.2020 06:00:00 4,8 4,4 0 0 6 3 N 1003,7 3,8 0,0
18.01.2020 05:00:00 5,0 4,7 3 1 6 3 Z 1003,8 7 0,1
18.01.2020 04:00:00 4,9 4,5 0 0 8 4 N 1003,9 5 0,2
18.01.2020 03:00:00 4,9 4,5 0 0 7 4 N 1004,2 6 0,7
18.01.2020 02:00:00 4,9 4,5 3 1 6 4 ZZO 1004,5 3,2 0,0
18.01.2020 01:00:00 5,0 4,3 0 0 11 6 N 1005,0 6 0,1

tt = temperatuur
td = dauwpunt
ff = windsnelheid
fx = windstoten
dd = windrichting
ppp = luchtdruk
vv = zicht
rr = neerslag

Weerstations in de omgeving